Weather History for KLUK - July, 2013

Change the Weather History Date:

Friday, July 5, 2013

  Actual Average Record
Temperature  
Mean Temperature 72 °F -  
Max Temperature 77 °F 84 °F 99 °F (2012)
Min Temperature 66 °F 65 °F 50 °F (2014)
Cooling Degree Days 6    
Growing Degree Days 22 (Base 50)    
Moisture  
Dew Point 68 °F    
Average Humidity 93    
Maximum Humidity 100    
Minimum Humidity 79    
Precipitation  
Precipitation 0.10 in - - ()
Sea Level Pressure  
Sea Level Pressure 30.13 in    
Wind  
Wind Speed 4 mph (South)    
Max Wind Speed 12 mph    
Max Gust Speed -    
Visibility 10 miles    
Events Rain    
Averages and records for this station are not official NWS values.
T = Trace of Precipitation, MM = Missing Value Source: NWS Daily Summary

Daily Weather History Graph

Daily Weather History Graph

Search for Another Location

Airport or City:

Trip Planner

Search our weather history database for the weather conditions in past years. The results will help you decide how hot, cold, wet, or windy it might be!

Date:

Astronomy

Jul. 05, 2013 Rise Set
Actual Time 6:17 AM EDT 9:06 PM EDT
Civil Twilight 5:45 AM EDT 9:38 PM EDT
Nautical Twilight 5:05 AM EDT 10:18 PM EDT
Astronomical Twilight 4:19 AM EDT 11:04 PM EDT
Moon 4:15 AM EDT (7/5) 7:01 PM EDT (7/5)
Length of Visible Light 15h 52m
Length of Day
14h 49m
Waning Crescent, 6% of the Moon is Illuminated
Jul 5
Waning Crescent
Jul 8
New
Jul 15
First Quarter
Jul 22
Full
Jul 29
Last Quarter

Hourly Weather History & Observations

Time (EDT) Temp. Dew Point Humidity Pressure Visibility Wind Dir Wind Speed Gust Speed Precip Events Conditions
12:07 AM 69.8 °F 68.0 °F 94% 30.12 in 8.0 mi WSW 11.5 mph - 0.00 in Rain Light Rain
12:48 AM 68.0 °F 66.2 °F 94% 30.14 in 8.0 mi SSW 5.8 mph - 0.00 in Rain Light Rain
12:53 AM 68.0 °F 66.9 °F 96% 30.13 in 10.0 mi South 5.8 mph - 0.00 in Rain Light Rain
1:53 AM 66.9 °F 66.0 °F 97% 30.12 in 10.0 mi South 5.8 mph - 0.00 in Rain Light Rain
2:53 AM 66.9 °F 66.0 °F 97% 30.11 in 10.0 mi Calm Calm - 0.00 in   Mostly Cloudy
3:24 AM 66.2 °F 66.2 °F 100% 30.12 in 10.0 mi Calm Calm - 0.00 in Rain Light Rain
3:44 AM 66.2 °F 66.2 °F 100% 30.12 in 9.0 mi Calm Calm - 0.00 in Rain Light Rain
3:53 AM 66.9 °F 66.9 °F 100% 30.11 in 7.0 mi Calm Calm - 0.01 in Rain Light Rain
4:03 AM 66.2 °F 66.2 °F 100% 30.12 in 8.0 mi SSE 3.5 mph - 0.00 in Rain Light Rain
4:53 AM 66.9 °F 66.0 °F 97% 30.10 in 10.0 mi Calm Calm - 0.01 in Rain Light Rain
5:53 AM 66.9 °F 66.0 °F 97% 30.11 in 10.0 mi Calm Calm - 0.01 in Rain Light Rain
6:53 AM 66.9 °F 66.0 °F 97% 30.12 in 5.0 mi Calm Calm - 0.07 in Rain Light Rain
7:12 AM 66.2 °F 66.2 °F 100% 30.13 in 10.0 mi Calm Calm - 0.00 in   Overcast
7:15 AM 66.2 °F 66.2 °F 100% 30.13 in 10.0 mi Calm Calm - 0.00 in   Overcast
7:53 AM 66.9 °F 66.0 °F 97% 30.13 in 10.0 mi Calm Calm - 0.00 in Rain Light Rain
8:15 AM 66.2 °F 66.2 °F 100% 30.14 in 9.0 mi Calm Calm - 0.00 in Rain Light Rain
8:30 AM 68.0 °F 66.2 °F 94% 30.15 in 10.0 mi Calm Calm - 0.00 in Rain Light Rain
8:53 AM 68.0 °F 66.9 °F 96% 30.15 in 10.0 mi South 5.8 mph - 0.00 in Rain Light Rain
9:53 AM 69.1 °F 68.0 °F 96% 30.16 in 10.0 mi South 4.6 mph - 0.00 in   Overcast
10:53 AM 71.1 °F 69.1 °F 93% 30.15 in 10.0 mi South 5.8 mph - N/A   Overcast
11:53 AM 72.0 °F 68.0 °F 87% 30.16 in 10.0 mi ESE 3.5 mph - N/A   Overcast
12:53 PM 73.0 °F 69.1 °F 87% 30.15 in 10.0 mi Calm Calm - N/A   Overcast
1:53 PM 72.0 °F 69.1 °F 91% 30.14 in 10.0 mi Calm Calm - 0.00 in Rain Light Rain
2:53 PM 73.9 °F 70.0 °F 87% 30.13 in 10.0 mi ESE 4.6 mph - 0.00 in   Overcast
3:53 PM 75.0 °F 69.1 °F 82% 30.12 in 10.0 mi Calm Calm - 0.00 in   Mostly Cloudy
4:53 PM 77.0 °F 70.0 °F 79% 30.12 in 10.0 mi South 8.1 mph - N/A   Scattered Clouds
5:53 PM 75.9 °F 70.0 °F 82% 30.10 in 10.0 mi SE 5.8 mph - N/A   Scattered Clouds
6:53 PM 75.9 °F 70.0 °F 82% 30.10 in 10.0 mi SSE 4.6 mph - N/A   Scattered Clouds
7:53 PM 75.0 °F 70.0 °F 84% 30.10 in 10.0 mi South 4.6 mph - N/A   Mostly Cloudy
8:53 PM 73.9 °F 70.0 °F 87% 30.10 in 10.0 mi SSE 3.5 mph - N/A   Mostly Cloudy
9:53 PM 73.0 °F 71.1 °F 93% 30.12 in 10.0 mi SSE 5.8 mph - N/A   Overcast
10:53 PM 73.0 °F 71.1 °F 93% 30.13 in 10.0 mi South 5.8 mph - N/A   Clear
11:53 PM 72.0 °F 70.0 °F 93% 30.13 in 10.0 mi SSW 4.6 mph - 0.00 in Rain Light Rain